[[{"header":{"parameterUnit":"m.s-1","parameterCategory":1,"la1":30.2991,"la2":30.254,"lo1":-89.0895,"lo2":-89.0444,"dy":0.0017,"dx":0.0017,"nx":28,"ny":28,"refTime":"2023-09-02T21:00:00:Z","depth":0,"parameterNumber":2,"parameterNumberName":"U-component_of_WINDS"},"data":[0,0,0,0,0,0,0,0,0,0,0,0,0,0,0,0,0,0,0,0,0,0,0,0,0,0,0,0,0,0,0,0,0,0,0,0,0,0,0,0,0,0,0,0,0,0,0,0,0,0,0,0,0,0,0,0,0,0,-4.2125,-4.2126,0,-4.2189,-4.219,-4.2191,-4.2209,-4.2209,-4.2208,-4.2208,-4.2267,-4.2269,-4.2271,0,0,0,0,0,0,0,0,0,0,0,0,0,-4.2011,-4.2013,-4.2125,-4.2126,-4.2127,-4.2189,-4.219,-4.2191,-4.2209,-4.2209,-4.2208,-4.2208,-4.2267,-4.2269,-4.2271,0,0,0,0,0,0,0,0,0,0,0,0,0,-4.2067,-4.2014,-4.2125,-4.2143,-4.2146,-4.2189,-4.219,-4.2191,-4.2209,-4.2209,-4.2208,-4.2208,-4.2266,-4.2269,-4.2271,-4.2299,0,0,-4.228,-4.2281,0,0,0,0,0,0,0,0,-4.2063,-4.2071,-4.214,-4.2142,-4.2145,-4.2191,-4.2172,-4.2227,-4.2209,-4.2185,-4.2208,-4.2208,-4.2242,-4.2247,-4.2259,-4.2302,-4.2304,-4.228,-4.2282,-4.2283,-4.2284,0,0,0,0,0,0,0,-4.206,-4.2068,-4.215,-4.2141,-4.2144,-4.2146,-4.2154,-4.2182,-4.2215,-4.2187,-4.2189,-4.2196,-4.2243,-4.2257,-4.2261,-4.2305,-4.228,-4.2283,-4.2284,-4.2286,-4.2372,-4.2373,0,0,0,0,0,0,-4.2054,-4.2065,-4.2148,-4.2152,-4.2102,-4.2149,-4.2157,-4.2176,-4.2215,-4.222,-4.2197,-4.2197,-4.2252,-4.2258,-4.2263,-4.2298,-4.2283,-4.2286,-4.2287,-4.2372,-4.2373,-4.2373,0,0,0,0,0,0,-4.2051,-4.2061,-4.2146,-4.2109,-4.212,-4.2151,-4.2173,-4.2178,-4.2192,-4.2222,-4.2227,-4.2205,-4.2252,-4.2259,-4.229,-4.23,-4.2287,-4.229,-4.2371,-4.2372,-4.2373,-4.2367,0,0,0,0,0,0,-4.2048,-4.206,-4.2072,-4.2109,-4.2122,-4.2173,-4.2174,-4.218,-4.2197,-4.2198,-4.2232,-4.2236,-4.2252,-4.2286,-4.2293,-4.2304,-4.2292,-4.237,-4.2372,-4.2373,-4.2366,-4.2367,-4.2368,0,0,0,0,0,-4.2044,-4.2066,-4.2073,-4.2082,-4.2138,-4.2174,-4.2181,-4.22,-4.2198,-4.221,-4.2229,-4.2235,-4.2298,-4.2289,-4.2297,-4.2309,-4.237,-4.2371,-4.2373,-4.2366,-4.2367,-4.2368,0,0,0,0,0,0,-4.2026,-4.2071,-4.2079,-4.2115,-4.2141,-4.2177,-4.2192,-4.2201,-4.2227,-4.2226,-4.2247,-4.2254,-4.2284,-4.2299,-4.2289,-4.2337,-4.2334,-4.2337,-4.2326,-4.2327,-4.2329,-4.2324,-4.2294,0,0,0,0,0,-4.2027,-4.2055,-4.2092,-4.212,-4.2133,-4.216,-4.2176,-4.219,-4.2216,-4.2227,-4.2249,-4.2272,-4.2298,-4.2313,-4.2338,-4.2369,-4.2376,-4.2381,-4.2382,-4.2383,-4.2385,-4.2402,-4.2404,-4.2378,-4.2378,-4.2378,0,0,-4.2028,-4.2056,-4.2072,-4.2117,-4.2139,-4.2165,-4.2169,-4.2196,-4.2216,-4.223,-4.2261,-4.2278,-4.2306,-4.2337,-4.2352,-4.2351,-4.2394,-4.2384,-4.2385,-4.2386,-4.2403,-4.2406,-4.2408,-4.2379,-4.2379,-4.2378,0,0,-4.2044,-4.2068,-4.2095,-4.2117,-4.2151,-4.2169,-4.2175,-4.2211,-4.2223,-4.2256,-4.2267,-4.2289,-4.2332,-4.2352,-4.2367,-4.2391,-4.2397,-4.2398,-4.2403,-4.242,-4.2422,-4.2424,-4.2432,-4.2434,-4.24,-4.24,-4.24,0,-4.204,-4.2083,-4.2106,-4.2134,-4.2153,-4.217,-4.2195,-4.2215,-4.2254,-4.2265,-4.2265,-4.2319,-4.2339,-4.2375,-4.2381,-4.2393,-4.24,-4.2394,-4.242,-4.2422,-4.2424,-4.2432,-4.2435,-4.24,-4.24,-4.24,-4.24,0,-4.2076,-4.2105,-4.2122,-4.2162,-4.2183,-4.2209,-4.2235,-4.2252,-4.2264,-4.2282,-4.2314,-4.2339,-4.2369,-4.2378,-4.2389,-4.2416,-4.2414,-4.2416,-4.2413,-4.2426,-4.2434,-4.2437,-4.24,-4.24,-4.24,-4.24,0,0,-4.2081,-4.2136,-4.2142,-4.216,-4.2199,-4.2221,-4.2247,-4.2279,-4.2294,-4.232,-4.2342,-4.2378,-4.2381,-4.2399,-4.2411,-4.2426,-4.2443,-4.2426,-4.2427,-4.2428,-4.2473,-4.247,-4.2474,-4.2448,-4.2448,-4.2449,-4.247,0,-4.2101,-4.2152,-4.2175,-4.2214,-4.2241,-4.2258,-4.228,-4.2306,-4.2323,-4.2346,-4.2365,-4.239,-4.2392,-4.2403,-4.2418,-4.2437,-4.2452,-4.2436,-4.2466,-4.2467,-4.2458,-4.2478,-4.2475,-4.2494,-4.2474,-4.2474,-4.2474,0,-4.2131,-4.2161,-4.2204,-4.2241,-4.2252,-4.2273,-4.2304,-4.2327,-4.2355,-4.2367,-4.2387,-4.24,-4.2426,-4.2422,-4.2458,-4.2447,-4.2461,-4.2472,-4.2473,-4.2476,-4.2471,-4.248,-4.2501,-4.2504,-4.2479,-4.2479,-4.2479,0,-4.2131,-4.2181,-4.2213,-4.2228,-4.2272,-4.2286,-4.2304,-4.2332,-4.235,-4.2377,-4.2388,-4.2416,-4.2432,-4.2452,-4.2471,-4.2467,-4.2505,-4.2503,-4.2514,-4.2514,-4.2521,-4.252,-4.2543,-4.2531,-4.2531,-4.2531,-4.2531,0,-4.215,-4.2176,-4.2214,-4.2233,-4.2262,-4.2286,-4.2313,-4.2332,-4.2357,-4.238,-4.2395,-4.2415,-4.244,-4.2462,-4.2477,-4.2505,-4.2511,-4.252,-4.2524,-4.2518,-4.2517,-4.2527,-4.2526,-4.2531,-4.2531,-4.2531,-4.2531,0,-4.2154,-4.218,-4.2217,-4.2256,-4.2266,-4.2285,-4.2317,-4.2336,-4.2355,-4.2383,-4.2391,-4.2419,-4.2447,-4.2469,-4.2504,-4.2514,-4.2542,-4.2546,-4.2533,-4.2535,-4.2545,-4.2543,-4.2574,-4.2579,-4.2564,-4.2564,-4.2564,0,-4.2164,-4.2185,-4.2227,-4.2244,-4.2263,-4.229,-4.2309,-4.2334,-4.2353,-4.2387,-4.2401,-4.2431,-4.2455,-4.2498,-4.2521,-4.2548,-4.2552,-4.2561,-4.2556,-4.255,-4.2551,-4.255,-4.2551,-4.2561,-4.2561,-4.2561,-4.2562,0,-4.218,-4.2192,-4.2221,-4.2254,-4.2277,-4.2303,-4.233,-4.2342,-4.2371,-4.2391,-4.2421,-4.244,-4.2477,-4.2506,-4.2535,-4.2552,-4.2561,-4.2563,-4.2567,-4.2562,-4.2553,-4.2557,-4.2534,-4.2562,-4.2562,-4.2562,-4.2562,-4.2562,-4.2187,-4.2206,-4.2239,-4.227,-4.2293,-4.2317,-4.2337,-4.236,-4.2386,-4.2419,-4.2432,-4.2462,-4.2489,-4.2531,-4.2547,-4.257,-4.257,-4.2576,-4.2577,-4.2578,-4.2577,-4.255,-4.2575,-4.2575,-4.2575,-4.2575,-4.2575,0,-4.2203,-4.2225,-4.2254,-4.2292,-4.2316,-4.2325,-4.2355,-4.2374,-4.2401,-4.2427,-4.2452,-4.2485,-4.2513,-4.2539,-4.2567,-4.258,-4.2585,-4.2587,-4.2586,-4.2589,-4.2576,-4.2569,-4.2582,-4.2582,-4.2582,-4.2582,-4.2582,-4.2582,-4.2214,-4.2247,-4.2263,-4.2307,-4.2329,-4.2361,-4.2377,-4.2399,-4.242,-4.2458,-4.2482,-4.2499,-4.2525,-4.2555,-4.2581,-4.2587,-4.2596,-4.2597,-4.2604,-4.2591,-4.259,-4.2589,-4.2583,-4.2599,-4.2599,-4.2616,-4.2616,-4.2616]},{"header":{"parameterUnit":"m.s-1","parameterCategory":1,"la1":30.2991,"la2":30.254,"lo1":-89.0895,"lo2":-89.0444,"dy":0.0017,"dx":0.0017,"nx":28,"ny":28,"refTime":"2023-09-02T21:00:00:Z","depth":0,"parameterNumber":3,"parameterNumberName":"V-component_of_WINDS"},"data":[0,0,0,0,0,0,0,0,0,0,0,0,0,0,0,0,0,0,0,0,0,0,0,0,0,0,0,0,0,0,0,0,0,0,0,0,0,0,0,0,0,0,0,0,0,0,0,0,0,0,0,0,0,0,0,0,0,0,5.0052,5.0054,0,5.0271,5.0273,5.0276,5.029,5.0287,5.0285,5.0283,5.0498,5.0506,5.0514,0,0,0,0,0,0,0,0,0,0,0,0,0,4.9635,4.9642,5.0052,5.0054,5.0057,5.027,5.0273,5.0276,5.029,5.0287,5.0284,5.0282,5.0495,5.0505,5.0514,0,0,0,0,0,0,0,0,0,0,0,0,0,4.9831,4.9645,5.0051,5.009,5.0096,5.027,5.0273,5.0277,5.0291,5.0287,5.0284,5.028,5.0492,5.0504,5.0516,5.0663,0,0,5.0552,5.0558,0,0,0,0,0,0,0,0,4.982,4.9846,5.0082,5.0088,5.0094,5.0249,5.0205,5.0406,5.0292,5.0217,5.0283,5.0278,5.0418,5.0436,5.0484,5.0673,5.0682,5.0554,5.0561,5.0566,5.0569,0,0,0,0,0,0,0,4.9806,4.9837,5.0138,5.0085,5.0093,5.0093,5.0117,5.0243,5.0335,5.0223,5.0224,5.0251,5.042,5.0473,5.049,5.0686,5.0553,5.0564,5.0571,5.0576,5.1001,5.1005,0,0,0,0,0,0,4.9786,4.9825,5.0131,5.0145,4.9945,5.0103,5.013,5.0203,5.0333,5.035,5.0253,5.025,5.0454,5.0475,5.0497,5.0676,5.0566,5.0577,5.0584,5.0997,5.1002,5.1007,0,0,0,0,0,0,4.9777,4.9814,5.0122,4.9986,5.0025,5.0115,5.0196,5.0209,5.0262,5.0357,5.0372,5.0291,5.0452,5.048,5.0621,5.0684,5.0583,5.0593,5.0992,5.0999,5.1004,5.1037,0,0,0,0,0,0,4.9765,4.981,4.987,4.9987,5.0032,5.0247,5.02,5.0216,5.0284,5.0282,5.0396,5.0411,5.0451,5.0603,5.0633,5.0699,5.0603,5.0987,5.0995,5.1002,5.103,5.1043,5.1054,0,0,0,0,0,4.975,4.9869,4.9873,4.991,5.0109,5.025,5.0276,5.0322,5.0289,5.0348,5.0408,5.0408,5.0672,5.0618,5.0652,5.0721,5.0983,5.0993,5.1002,5.1025,5.104,5.1054,0,0,0,0,0,0,4.9756,4.9886,4.9891,5.0052,5.014,5.0252,5.0329,5.0337,5.0435,5.0429,5.0479,5.0504,5.0643,5.0696,5.0633,5.0868,5.0823,5.084,5.0829,5.0845,5.0856,5.0841,5.0613,0,0,0,0,0,4.9776,4.9883,4.9989,5.0121,5.0165,5.0239,5.0302,5.033,5.0422,5.0458,5.0529,5.0615,5.0717,5.0784,5.0883,5.1037,5.106,5.1101,5.1113,5.1122,5.1136,5.1217,5.1236,5.1037,5.1037,5.1037,0,0,4.9819,4.9903,4.9967,5.0124,5.0196,5.0301,5.027,5.0384,5.0462,5.0475,5.0613,5.0667,5.0766,5.0914,5.0982,5.0962,5.1195,5.1134,5.1141,5.1149,5.1229,5.1247,5.1264,5.1043,5.1042,5.1041,0,0,4.995,5.0026,5.0143,5.0215,5.0324,5.0372,5.0399,5.051,5.0547,5.0687,5.0697,5.0788,5.0964,5.1034,5.1092,5.1245,5.1247,5.1276,5.1337,5.1416,5.1432,5.1446,5.1499,5.1517,5.1289,5.1289,5.1289,0,4.9989,5.0153,5.0201,5.0315,5.0382,5.0399,5.0515,5.0582,5.0716,5.076,5.0736,5.0956,5.1024,5.1186,5.1223,5.127,5.13,5.1264,5.1426,5.1441,5.1455,5.1505,5.1525,5.1291,5.1291,5.1291,5.1291,0,5.0193,5.0305,5.0386,5.0518,5.0593,5.0707,5.0769,5.0839,5.0859,5.0908,5.1047,5.1129,5.1244,5.1284,5.1304,5.1448,5.1432,5.1417,5.1373,5.1476,5.1524,5.1544,5.1295,5.1294,5.1294,5.1293,0,0,5.0337,5.0492,5.0521,5.058,5.0699,5.0785,5.0897,5.1012,5.107,5.116,5.1254,5.14,5.1386,5.1452,5.1479,5.1548,5.1661,5.1524,5.1527,5.1545,5.1821,5.1832,5.1854,5.1663,5.1666,5.167,5.1812,0,5.0482,5.0687,5.0731,5.0906,5.1008,5.1024,5.1121,5.1202,5.125,5.134,5.1391,5.1494,5.1468,5.1508,5.1577,5.1633,5.1717,5.1623,5.1747,5.1751,5.1722,5.188,5.1892,5.2023,5.1831,5.1835,5.1837,0,5.0679,5.0776,5.0961,5.1064,5.1109,5.1196,5.1303,5.139,5.148,5.1509,5.1582,5.16,5.1713,5.1663,5.1816,5.1752,5.1804,5.1838,5.1844,5.1858,5.18,5.1896,5.2066,5.2086,5.1868,5.1865,5.1863,0,5.0764,5.094,5.1074,5.1123,5.1247,5.1307,5.1361,5.1448,5.1513,5.1604,5.1646,5.1748,5.1804,5.188,5.1924,5.1884,5.2074,5.2028,5.2098,5.2097,5.2138,5.2135,5.2319,5.2172,5.2172,5.2172,5.2171,0,5.092,5.1033,5.1113,5.1195,5.132,5.1367,5.1488,5.1541,5.1617,5.1706,5.1725,5.1807,5.186,5.1949,5.1983,5.2104,5.2129,5.2153,5.2161,5.2152,5.2148,5.2187,5.2179,5.2177,5.2176,5.2175,5.2174,0,5.1038,5.1096,5.1242,5.1347,5.1375,5.1462,5.155,5.1628,5.1674,5.1786,5.1815,5.1886,5.1991,5.2042,5.2172,5.2195,5.2331,5.2333,5.2301,5.2304,5.2372,5.2364,5.2586,5.2617,5.245,5.2452,5.2453,0,5.1134,5.1221,5.1335,5.1397,5.1453,5.1553,5.1619,5.1666,5.1734,5.1841,5.1905,5.2011,5.2099,5.2264,5.2326,5.2423,5.2428,5.2498,5.2442,5.2429,5.2427,5.2421,5.2429,5.2508,5.251,5.2511,5.2512,0,5.1299,5.1322,5.1419,5.1524,5.1603,5.1688,5.1771,5.182,5.188,5.1954,5.2062,5.213,5.2262,5.2366,5.2468,5.2518,5.2525,5.2529,5.2551,5.2543,5.252,5.2532,5.2328,5.2524,5.2523,5.2522,5.2522,5.2521,5.1408,5.1485,5.1576,5.1682,5.1749,5.1825,5.1903,5.1958,5.2051,5.2164,5.2185,5.23,5.2382,5.252,5.2574,5.2661,5.2645,5.2676,5.2684,5.2691,5.2694,5.2506,5.2679,5.2679,5.2679,5.2679,5.2678,0,5.1572,5.1631,5.1728,5.1844,5.1925,5.1926,5.2016,5.2083,5.2185,5.2263,5.2349,5.2471,5.2571,5.2638,5.2738,5.2795,5.28,5.2819,5.2815,5.2826,5.2703,5.2675,5.2813,5.2813,5.2813,5.2813,5.2813,5.2813,5.1668,5.1797,5.1831,5.1992,5.2049,5.2163,5.2215,5.2283,5.2346,5.2483,5.2566,5.261,5.2683,5.2788,5.2877,5.2894,5.2929,5.2949,5.2966,5.2849,5.2835,5.2822,5.2795,5.2957,5.2957,5.3081,5.3083,5.3083]}]]